North Bend Weather Center

Moon Phase Calendar



Online Cameras

 


      

Current Conditions in North Bend
9/27/2022 11:02:08 AM

57°F
Feels Like 57
Clouds
Humidity
96%
Pressure
30"
Wind
6.9 mph (SSE)
Dew Point
56°F
UV Index
3/10 (Moderate)
Visibility
6 mi

Hourly Forecast

Date & Time Tue, Sep 27
11:00 AM
Tue, Sep 27
12:00 PM
Tue, Sep 27
1:00 PM
Tue, Sep 27
2:00 PM
Tue, Sep 27
3:00 PM
Tue, Sep 27
4:00 PM
Tue, Sep 27
5:00 PM
Tue, Sep 27
6:00 PM
Tue, Sep 27
7:00 PM
Tue, Sep 27
8:00 PM
Tue, Sep 27
9:00 PM
Tue, Sep 27
10:00 PM
Tue, Sep 27
11:00 PM
Wed, Sep 28
12:00 AM
Wed, Sep 28
1:00 AM
Wed, Sep 28
2:00 AM
Wed, Sep 28
3:00 AM
Wed, Sep 28
4:00 AM
Wed, Sep 28
5:00 AM
Wed, Sep 28
6:00 AM
Wed, Sep 28
7:00 AM
Wed, Sep 28
8:00 AM
Wed, Sep 28
9:00 AM
Wed, Sep 28
10:00 AM
Wed, Sep 28
11:00 AM
Wed, Sep 28
12:00 PM
Wed, Sep 28
1:00 PM
Wed, Sep 28
2:00 PM
Wed, Sep 28
3:00 PM
Wed, Sep 28
4:00 PM
Wed, Sep 28
5:00 PM
Wed, Sep 28
6:00 PM
Wed, Sep 28
7:00 PM
Wed, Sep 28
8:00 PM
Wed, Sep 28
9:00 PM
Wed, Sep 28
10:00 PM
Wed, Sep 28
11:00 PM
Thu, Sep 29
12:00 AM
Thu, Sep 29
1:00 AM
Thu, Sep 29
2:00 AM
Thu, Sep 29
3:00 AM
Thu, Sep 29
4:00 AM
Thu, Sep 29
5:00 AM
Thu, Sep 29
6:00 AM
Thu, Sep 29
7:00 AM
Thu, Sep 29
8:00 AM
Thu, Sep 29
9:00 AM
Thu, Sep 29
10:00 AM
Condition
Clouds

Clouds

Clouds

Clouds

Clouds

Clouds

Clouds

Clouds

Clouds

Clouds

Clouds

Clouds

Clouds

Clouds

Clouds

Clouds

Clouds

Clouds

Rain

Clouds

Clouds

Rain

Rain

Clouds

Clouds

Clouds

Clouds

Clouds

Clouds

Clouds

Clouds

Clouds

Clouds

Rain

Rain

Rain

Rain

Rain

Rain

Clouds

Clouds

Rain

Clouds

Clouds

Clouds

Clouds

Clouds

Clouds
Temperature 57°F58°F58°F59°F60°F61°F60°F59°F57°F55°F55°F55°F54°F54°F54°F54°F55°F55°F56°F56°F57°F57°F56°F57°F59°F64°F66°F65°F64°F63°F62°F62°F60°F59°F59°F59°F59°F59°F59°F59°F58°F58°F58°F58°F58°F58°F59°F60°F
Feels Like 57°F57°F58°F59°F60°F60°F59°F59°F56°F55°F55°F54°F54°F54°F54°F54°F55°F55°F56°F56°F56°F56°F56°F57°F58°F63°F65°F64°F64°F62°F62°F61°F60°F59°F59°F59°F59°F58°F59°F58°F58°F58°F58°F58°F57°F58°F59°F60°F
Cloudiness 100%100%100%100%84%70%74%80%90%93%95%96%97%100%100%100%100%100%100%100%100%100%100%100%100%16%39%44%45%56%61%35%49%60%61%59%57%82%82%76%76%80%83%99%97%92%85%78%
Visibility 6 mi6 mi6 mi6 mi6 mi6 mi6 mi6 mi6 mi6 mi6 mi6 mi6 mi6 mi6 mi6 mi6 mi6 mi6 mi6 mi6 mi6 mi6 mi6 mi6 mi6 mi6 mi6 mi6 mi6 mi6 mi6 mi6 mi6 mi6 mi6 mi6 mi6 mi6 mi6 mi6 mi6 mi6 mi6 mi6 mi6 mi6 mi6 mi
Precipitation 0%0%0%0%0%0%0%0%0%0%0%0%0%0%0%0%0%1%54%80%76%68%76%68%65%0%0%0%0%0%0%27%38%46%47%47%47%38%45%47%47%51%43%18%16%7%7%3%
Humidity 96%92%88%83%79%78%82%84%92%94%94%94%94%94%94%93%90%90%88%89%87%88%93%92%87%70%64%69%71%75%75%74%78%84%88%89%90%91%92%93%94%93%93%93%94%94%93%90%
Dew Point 56°F55°F55°F54°F54°F53°F54°F54°F54°F53°F53°F52°F52°F52°F52°F52°F52°F52°F52°F52°F52°F52°F53°F54°F54°F54°F52°F53°F54°F54°F53°F53°F53°F54°F55°F55°F56°F56°F56°F56°F55°F56°F55°F55°F55°F56°F56°F57°F
Pressure 30"30"30"30"30"29.97"29.97"29.97"29.97"30"30"30"29.97"29.97"29.97"29.97"29.94"29.94"29.94"29.97"29.97"30"30"30"30"30"30"30"30"30"30"30"30.03"30.03"30.06"30.06"30.06"30.09"30.09"30.09"30.09"30.09"30.12"30.12"30.15"30.15"30.15"30.18"
Wind Speed 8.8 mph9.7 mph10.8 mph10.3 mph9.3 mph8.2 mph6.4 mph5 mph4.5 mph5 mph4.7 mph4.3 mph4.1 mph4.8 mph4.8 mph5.3 mph5.3 mph4.4 mph4.9 mph4.3 mph2.9 mph4 mph5.1 mph5.8 mph7.7 mph14.3 mph17.6 mph18.9 mph19 mph17.9 mph18.1 mph18 mph17.9 mph17 mph16.1 mph15.8 mph15 mph14.2 mph14.8 mph12.5 mph10.5 mph9.4 mph8.4 mph8.4 mph8.2 mph7.8 mph7.9 mph7.6 mph
Wind
Direction
214°
SW
222°
SW
226°
SW
228°
SW
227°
SW
226°
SW
222°
SW
203°
SSW
202°
SSW
169°
S
154°
SSE
150°
SSE
133°
SE
137°
SE
133°
SE
123°
ESE
123°
ESE
139°
SE
129°
SE
168°
SSE
166°
SSE
194°
SSW
162°
SSE
163°
SSE
163°
SSE
193°
SSW
211°
SSW
214°
SW
213°
SSW
208°
SSW
207°
SSW
205°
SSW
201°
SSW
197°
SSW
195°
SSW
194°
SSW
193°
SSW
198°
SSW
198°
SSW
193°
SSW
188°
S
188°
S
194°
SSW
201°
SSW
205°
SSW
204°
SSW
198°
SSW
204°
SSW

Daily Forecast

Date High Low Precip. Humidity
Today
Sep 27

Clouds
61 °F
54 °F
0%
88%
Wednesday
Sep 28

Rain
66 °F
54 °F
80%
64%
Thursday
Sep 29

Rain
63 °F
55 °F
47%
79%
Friday
Sep 30

Clear
67 °F
54 °F
0%
62%
Saturday
Oct 1

Clear
75 °F
56 °F
0%
44%
Sunday
Oct 2

Clear
69 °F
56 °F
0%
56%
Monday
Oct 3

Clear
68 °F
55 °F
0%
58%
Tuesday
Oct 4

Clouds
64 °F
53 °F
0%
69%
Wednesday
Oct 5

Clear
64 °F
53 °F
0%
68%
Thursday
Oct 6

Clouds
63 °F
53 °F
0%
68%
Friday
Oct 7

Clear
65 °F
53 °F
0%
58%
Saturday
Oct 8

Clear
64 °F
52 °F
0%
65%
Sunday
Oct 9

Clear
64 °F
51 °F
0%
63%
Monday
Oct 10

Clear
66 °F
54 °F
0%
68%
Tuesday
Oct 11

Clear
68 °F
54 °F
0%
63%
Wednesday
Oct 12

Clear
72 °F
55 °F
0%
51%

Temperature 8-14 Day Outlook



Precipitation 8-14 Day Outlook




Quick Links
North Bend News
North Bend Photos
North Bend Videos




About Us
Contact Us
Site Map
Search Site
Advertise With Us
   
NorthBend.USCoast.info
THE NORTH BEND WEBSITE

Copyright 2022, Coastal Town
Privacy    |    Legal